Year,Month,Day,Hour,Minute,Value (Times are PST for temperature in C)
2016,08,24,00,00,16.30
2016,08,24,00,01,16.30
2016,08,24,00,02,16.30
2016,08,24,00,03,16.20
2016,08,24,00,04,16.20
2016,08,24,00,05,16.20
2016,08,24,00,06,16.20
2016,08,24,00,07,16.20
2016,08,24,00,08,16.20
2016,08,24,00,09,16.20
2016,08,24,00,10,16.20
2016,08,24,00,11,16.20
2016,08,24,00,12,16.20
2016,08,24,00,13,16.10
2016,08,24,00,14,16.10
2016,08,24,00,15,16.10
2016,08,24,00,16,16.10
2016,08,24,00,17,16.10
2016,08,24,00,18,16.10
2016,08,24,00,19,16.10
2016,08,24,00,20,16.10
2016,08,24,00,21,16.10
2016,08,24,00,22,16.10
2016,08,24,00,23,16.10
2016,08,24,00,24,16.10
2016,08,24,00,25,16.10
2016,08,24,00,26,16.10
2016,08,24,00,27,16.10
2016,08,24,00,28,16.10
2016,08,24,00,29,16.10
2016,08,24,00,30,16.10
2016,08,24,00,31,16.10
2016,08,24,00,32,16.10
2016,08,24,00,33,16.20
2016,08,24,00,34,16.20
2016,08,24,00,35,16.20
2016,08,24,00,36,16.20
2016,08,24,00,37,16.20
2016,08,24,00,38,16.20
2016,08,24,00,39,16.30
2016,08,24,00,40,16.30
2016,08,24,00,41,16.30
2016,08,24,00,42,16.40
2016,08,24,00,43,16.40
2016,08,24,00,44,16.50
2016,08,24,00,45,16.50
2016,08,24,00,46,16.50
2016,08,24,00,47,16.60
2016,08,24,00,48,16.60
2016,08,24,00,49,16.60
2016,08,24,00,50,16.60
2016,08,24,00,51,16.60
2016,08,24,00,52,16.60
2016,08,24,00,53,16.50
2016,08,24,00,54,16.50
2016,08,24,00,55,16.40
2016,08,24,00,56,16.40
2016,08,24,00,57,16.40
2016,08,24,00,58,16.40
2016,08,24,00,59,16.40
2016,08,24,01,00,16.30
2016,08,24,01,01,16.30
2016,08,24,01,02,16.30
2016,08,24,01,03,16.30
2016,08,24,01,04,16.30
2016,08,24,01,05,16.30
2016,08,24,01,06,16.30
2016,08,24,01,07,16.30
2016,08,24,01,08,16.30
2016,08,24,01,09,16.30
2016,08,24,01,10,16.30
2016,08,24,01,11,16.30
2016,08,24,01,12,16.30
2016,08,24,01,13,16.30
2016,08,24,01,14,16.30
2016,08,24,01,15,16.30
2016,08,24,01,16,16.30
2016,08,24,01,17,16.30
2016,08,24,01,18,16.20
2016,08,24,01,19,16.20
2016,08,24,01,20,16.20
2016,08,24,01,21,16.20
2016,08,24,01,22,16.10
2016,08,24,01,23,16.10
2016,08,24,01,24,16.10
2016,08,24,01,25,16.10
2016,08,24,01,26,16.00
2016,08,24,01,27,16.00
2016,08,24,01,28,16.00
2016,08,24,01,29,16.00
2016,08,24,01,30,15.90
2016,08,24,01,31,15.90
2016,08,24,01,32,15.90
2016,08,24,01,33,15.80
2016,08,24,01,34,15.80
2016,08,24,01,35,15.80
2016,08,24,01,36,15.80
2016,08,24,01,37,15.80
2016,08,24,01,38,15.80
2016,08,24,01,39,15.80
2016,08,24,01,40,15.80
2016,08,24,01,41,15.70
2016,08,24,01,42,15.70
2016,08,24,01,43,15.70
2016,08,24,01,44,15.70
2016,08,24,01,45,15.70
2016,08,24,01,46,15.70
2016,08,24,01,47,15.70
2016,08,24,01,48,15.70
2016,08,24,01,49,15.70
2016,08,24,01,50,15.70
2016,08,24,01,51,15.70
2016,08,24,01,52,15.70
2016,08,24,01,53,15.70
2016,08,24,01,54,15.70
2016,08,24,01,55,15.70
2016,08,24,01,56,15.70
2016,08,24,01,57,15.70
2016,08,24,01,58,15.70
2016,08,24,01,59,15.70
2016,08,24,02,00,15.70
2016,08,24,02,01,15.70
2016,08,24,02,02,15.70
2016,08,24,02,03,15.70
2016,08,24,02,04,15.70
2016,08,24,02,05,15.70
2016,08,24,02,06,15.60
2016,08,24,02,07,15.60
2016,08,24,02,08,15.60
2016,08,24,02,09,15.50
2016,08,24,02,10,15.50
2016,08,24,02,11,15.50
2016,08,24,02,12,15.50
2016,08,24,02,13,15.40
2016,08,24,02,14,15.40
2016,08,24,02,15,15.40
2016,08,24,02,16,15.40
2016,08,24,02,17,15.40
2016,08,24,02,18,15.40
2016,08,24,02,19,15.40
2016,08,24,02,20,15.30
2016,08,24,02,21,15.30
2016,08,24,02,22,15.30
2016,08,24,02,23,15.20
2016,08,24,02,24,15.20
2016,08,24,02,25,15.10
2016,08,24,02,26,15.00
2016,08,24,02,27,14.90
2016,08,24,02,28,14.80
2016,08,24,02,29,14.70
2016,08,24,02,30,14.70
2016,08,24,02,31,14.60
2016,08,24,02,32,14.50
2016,08,24,02,33,14.40
2016,08,24,02,34,14.40
2016,08,24,02,35,14.30
2016,08,24,02,36,14.30
2016,08,24,02,37,14.20
2016,08,24,02,38,14.20
2016,08,24,02,39,14.20
2016,08,24,02,40,14.10
2016,08,24,02,41,14.10
2016,08,24,02,42,14.10
2016,08,24,02,43,14.10
2016,08,24,02,44,14.00
2016,08,24,02,45,14.00
2016,08,24,02,46,13.90
2016,08,24,02,47,13.90
2016,08,24,02,48,13.90
2016,08,24,02,49,13.90
2016,08,24,02,50,13.80
2016,08,24,02,51,13.80
2016,08,24,02,52,13.80
2016,08,24,02,53,13.80
2016,08,24,02,54,13.80
2016,08,24,02,55,13.80
2016,08,24,02,56,13.80
2016,08,24,02,57,13.80
2016,08,24,02,58,13.80
2016,08,24,02,59,13.80
2016,08,24,03,00,13.80
2016,08,24,03,01,13.80
2016,08,24,03,02,13.80
2016,08,24,03,03,13.80
2016,08,24,03,04,13.80
2016,08,24,03,05,13.80
2016,08,24,03,06,13.80
2016,08,24,03,07,13.80
2016,08,24,03,08,13.80
2016,08,24,03,09,13.80
2016,08,24,03,10,13.80
2016,08,24,03,11,13.80
2016,08,24,03,12,13.80
2016,08,24,03,13,13.80
2016,08,24,03,14,13.80
2016,08,24,03,15,13.80
2016,08,24,03,16,13.80
2016,08,24,03,17,13.80
2016,08,24,03,18,13.80
2016,08,24,03,19,13.80
2016,08,24,03,20,13.70
2016,08,24,03,21,13.70
2016,08,24,03,22,13.70
2016,08,24,03,23,13.70
2016,08,24,03,24,13.70
2016,08,24,03,25,13.70
2016,08,24,03,26,13.70
2016,08,24,03,27,13.70
2016,08,24,03,28,13.70
2016,08,24,03,29,13.70
2016,08,24,03,30,13.70
2016,08,24,03,31,13.60
2016,08,24,03,32,13.70
2016,08,24,03,33,13.60
2016,08,24,03,34,13.60
2016,08,24,03,35,13.60
2016,08,24,03,36,13.60
2016,08,24,03,37,13.60
2016,08,24,03,38,13.60
2016,08,24,03,39,13.60
2016,08,24,03,40,13.60
2016,08,24,03,41,13.60
2016,08,24,03,42,13.60
2016,08,24,03,43,13.60
2016,08,24,03,44,13.50
2016,08,24,03,45,13.50
2016,08,24,03,46,13.50
2016,08,24,03,47,13.50
2016,08,24,03,48,13.50
2016,08,24,03,49,13.60
2016,08,24,03,50,13.50
2016,08,24,03,51,13.60
2016,08,24,03,52,13.60
2016,08,24,03,53,13.60
2016,08,24,03,54,13.60
2016,08,24,03,55,13.60
2016,08,24,03,56,13.70
2016,08,24,03,57,13.70
2016,08,24,03,58,13.70
2016,08,24,03,59,13.70
2016,08,24,04,00,13.70
2016,08,24,04,01,13.80
2016,08,24,04,02,13.80
2016,08,24,04,03,13.80
2016,08,24,04,04,13.80
2016,08,24,04,05,13.80
2016,08,24,04,06,13.80
2016,08,24,04,07,13.80
2016,08,24,04,08,13.80
2016,08,24,04,09,13.90
2016,08,24,04,10,13.90
2016,08,24,04,11,13.90
2016,08,24,04,12,13.90
2016,08,24,04,13,13.90
2016,08,24,04,14,13.90
2016,08,24,04,15,13.90
2016,08,24,04,16,13.90
2016,08,24,04,17,13.90
2016,08,24,04,18,14.00
2016,08,24,04,19,14.00
2016,08,24,04,20,14.00
2016,08,24,04,21,14.00
2016,08,24,04,22,14.10
2016,08,24,04,23,14.10
2016,08,24,04,24,14.10
2016,08,24,04,25,14.10
2016,08,24,04,26,14.00
2016,08,24,04,27,14.00
2016,08,24,04,28,14.10
2016,08,24,04,29,14.00
2016,08,24,04,30,14.00
2016,08,24,04,31,14.00
2016,08,24,04,32,14.00
2016,08,24,04,33,14.00
2016,08,24,04,34,14.00
2016,08,24,04,35,13.90
2016,08,24,04,36,13.90
2016,08,24,04,37,13.90
2016,08,24,04,38,13.90
2016,08,24,04,39,13.90
2016,08,24,04,40,13.90
2016,08,24,04,41,13.80
2016,08,24,04,42,13.80
2016,08,24,04,43,13.80
2016,08,24,04,44,13.80
2016,08,24,04,45,13.70
2016,08,24,04,46,13.70
2016,08,24,04,47,13.70
2016,08,24,04,48,13.70
2016,08,24,04,49,13.70
2016,08,24,04,50,13.70
2016,08,24,04,51,13.60
2016,08,24,04,52,13.60
2016,08,24,04,53,13.60
2016,08,24,04,54,13.60
2016,08,24,04,55,13.60
2016,08,24,04,56,13.50
2016,08,24,04,57,13.50
2016,08,24,04,58,13.50
2016,08,24,04,59,13.50
2016,08,24,05,00,13.40
2016,08,24,05,01,13.40
2016,08,24,05,02,13.40
2016,08,24,05,03,13.40
2016,08,24,05,04,13.40
2016,08,24,05,05,13.40
2016,08,24,05,06,13.40
2016,08,24,05,07,13.40
2016,08,24,05,08,13.40
2016,08,24,05,09,13.40
2016,08,24,05,10,13.40
2016,08,24,05,11,13.30
2016,08,24,05,12,13.30
2016,08,24,05,13,13.30
2016,08,24,05,14,13.30
2016,08,24,05,15,13.30
2016,08,24,05,16,13.30
2016,08,24,05,17,13.30
2016,08,24,05,18,13.30
2016,08,24,05,19,13.30
2016,08,24,05,20,13.30
2016,08,24,05,21,13.30
2016,08,24,05,22,13.30
2016,08,24,05,23,13.30
2016,08,24,05,24,13.30
2016,08,24,05,25,13.30
2016,08,24,05,26,13.40
2016,08,24,05,27,13.40
2016,08,24,05,28,13.40
2016,08,24,05,29,13.40
2016,08,24,05,30,13.50
2016,08,24,05,31,13.50
2016,08,24,05,32,13.50
2016,08,24,05,33,13.50
2016,08,24,05,34,13.50
2016,08,24,05,35,13.50
2016,08,24,05,36,13.40
2016,08,24,05,37,13.40
2016,08,24,05,38,13.30
2016,08,24,05,39,13.30
2016,08,24,05,40,13.30
2016,08,24,05,41,13.30
2016,08,24,05,42,13.20
2016,08,24,05,43,13.20
2016,08,24,05,44,13.20
2016,08,24,05,45,13.20
2016,08,24,05,46,13.20
2016,08,24,05,47,13.10
2016,08,24,05,48,13.10
2016,08,24,05,49,13.10
2016,08,24,05,50,13.00
2016,08,24,05,51,13.00
2016,08,24,05,52,12.90
2016,08,24,05,53,12.90
2016,08,24,05,54,12.80
2016,08,24,05,55,12.80
2016,08,24,05,56,12.80
2016,08,24,05,57,12.70
2016,08,24,05,58,12.70
2016,08,24,05,59,12.70
2016,08,24,06,00,12.70
2016,08,24,06,01,12.70
2016,08,24,06,02,12.70
2016,08,24,06,03,12.70
2016,08,24,06,04,12.70
2016,08,24,06,05,12.70
2016,08,24,06,06,12.60
2016,08,24,06,07,12.60
2016,08,24,06,08,12.60
2016,08,24,06,09,12.60
2016,08,24,06,10,12.60
2016,08,24,06,11,12.50
2016,08,24,06,12,12.50
2016,08,24,06,13,12.50
2016,08,24,06,14,12.50
2016,08,24,06,15,12.50
2016,08,24,06,16,12.60
2016,08,24,06,17,12.60
2016,08,24,06,18,12.60
2016,08,24,06,19,12.60
2016,08,24,06,20,12.60
2016,08,24,06,21,12.50
2016,08,24,06,22,12.50
2016,08,24,06,23,12.50
2016,08,24,06,24,12.50
2016,08,24,06,25,12.50
2016,08,24,06,26,12.50
2016,08,24,06,27,12.50
2016,08,24,06,28,12.50
2016,08,24,06,29,12.50
2016,08,24,06,30,12.50
2016,08,24,06,31,12.50
2016,08,24,06,32,12.50
2016,08,24,06,33,12.50
2016,08,24,06,34,12.60
2016,08,24,06,35,12.60
2016,08,24,06,36,12.60
2016,08,24,06,37,12.60
2016,08,24,06,38,12.60
2016,08,24,06,39,12.70
2016,08,24,06,40,12.70
2016,08,24,06,41,12.70
2016,08,24,06,42,12.70
2016,08,24,06,43,12.70
2016,08,24,06,44,12.70
2016,08,24,06,45,12.70
2016,08,24,06,46,12.80
2016,08,24,06,47,12.80
2016,08,24,06,48,12.80
2016,08,24,06,49,12.80
2016,08,24,06,50,12.90
2016,08,24,06,51,12.90
2016,08,24,06,52,13.00
2016,08,24,06,53,13.10
2016,08,24,06,54,13.10
2016,08,24,06,55,13.20
2016,08,24,06,56,13.20
2016,08,24,06,57,13.30
2016,08,24,06,58,13.30
2016,08,24,06,59,13.30
2016,08,24,07,00,13.30
2016,08,24,07,01,13.30
2016,08,24,07,02,13.40
2016,08,24,07,03,13.40
2016,08,24,07,04,13.40
2016,08,24,07,05,13.40
2016,08,24,07,06,13.40
2016,08,24,07,07,13.50
2016,08,24,07,08,13.50
2016,08,24,07,09,13.50
2016,08,24,07,10,13.60
2016,08,24,07,11,13.60
2016,08,24,07,12,13.60
2016,08,24,07,13,13.70
2016,08,24,07,14,13.80
2016,08,24,07,15,13.80
2016,08,24,07,16,13.90
2016,08,24,07,17,13.90
2016,08,24,07,18,14.00
2016,08,24,07,19,14.00
2016,08,24,07,20,14.10
2016,08,24,07,21,14.10
2016,08,24,07,22,14.20
2016,08,24,07,23,14.30
2016,08,24,07,24,14.30
2016,08,24,07,25,14.40
2016,08,24,07,26,14.50
2016,08,24,07,27,14.60
2016,08,24,07,28,14.60
2016,08,24,07,29,14.70
2016,08,24,07,30,14.80
2016,08,24,07,31,14.90
2016,08,24,07,32,14.90
2016,08,24,07,33,15.00
2016,08,24,07,34,15.10
2016,08,24,07,35,15.20
2016,08,24,07,36,15.20
2016,08,24,07,37,15.30
2016,08,24,07,38,15.30
2016,08,24,07,39,15.40
2016,08,24,07,40,15.50
2016,08,24,07,41,15.60
2016,08,24,07,42,15.60
2016,08,24,07,43,15.70
2016,08,24,07,44,15.80
2016,08,24,07,45,15.90
2016,08,24,07,46,16.00
2016,08,24,07,47,16.00
2016,08,24,07,48,16.20
2016,08,24,07,49,16.30
2016,08,24,07,50,16.40
2016,08,24,07,51,16.50
2016,08,24,07,52,16.60
2016,08,24,07,53,16.70
2016,08,24,07,54,16.70
2016,08,24,07,55,16.80
2016,08,24,07,56,16.90
2016,08,24,07,57,16.90
2016,08,24,07,58,17.00
2016,08,24,07,59,17.10
2016,08,24,08,00,17.20
2016,08,24,08,01,17.30
2016,08,24,08,02,17.30
2016,08,24,08,03,17.40
2016,08,24,08,04,17.40
2016,08,24,08,05,17.50
2016,08,24,08,06,17.60
2016,08,24,08,07,17.60
2016,08,24,08,08,17.70
2016,08,24,08,09,17.80
2016,08,24,08,10,17.90
2016,08,24,08,11,18.00
2016,08,24,08,12,18.10
2016,08,24,08,13,18.20
2016,08,24,08,14,18.30
2016,08,24,08,15,18.30
2016,08,24,08,16,18.40
2016,08,24,08,17,18.50
2016,08,24,08,18,18.50
2016,08,24,08,19,18.60
2016,08,24,08,20,18.70
2016,08,24,08,21,18.80
2016,08,24,08,22,18.80
2016,08,24,08,23,18.80
2016,08,24,08,24,18.80
2016,08,24,08,25,18.80
2016,08,24,08,26,18.80
2016,08,24,08,27,18.60
2016,08,24,08,28,18.30
2016,08,24,08,29,18.00
2016,08,24,08,30,17.70
2016,08,24,08,31,17.50
2016,08,24,08,32,17.40
2016,08,24,08,33,17.20
2016,08,24,08,34,17.10
2016,08,24,08,35,17.00
2016,08,24,08,36,17.00
2016,08,24,08,37,16.90
2016,08,24,08,38,16.90
2016,08,24,08,39,16.80
2016,08,24,08,40,16.80
2016,08,24,08,41,16.80
2016,08,24,08,42,16.80
2016,08,24,08,43,16.80
2016,08,24,08,44,16.80
2016,08,24,08,45,16.80
2016,08,24,08,46,16.80
2016,08,24,08,47,16.80
2016,08,24,08,48,16.80
2016,08,24,08,49,16.80
2016,08,24,08,50,16.90
2016,08,24,08,51,17.00
2016,08,24,08,52,17.00
2016,08,24,08,53,17.10
2016,08,24,08,54,17.20
2016,08,24,08,55,17.30
2016,08,24,08,56,17.40
2016,08,24,08,57,17.50
2016,08,24,08,58,17.50
2016,08,24,08,59,17.60
2016,08,24,09,00,17.60
2016,08,24,09,01,17.60
2016,08,24,09,02,17.60
2016,08,24,09,03,17.70
2016,08,24,09,04,17.70
2016,08,24,09,05,17.80
2016,08,24,09,06,17.80
2016,08,24,09,07,17.80
2016,08,24,09,08,17.80
2016,08,24,09,09,17.90
2016,08,24,09,10,17.90
2016,08,24,09,11,17.90
2016,08,24,09,12,18.00
2016,08,24,09,13,18.00
2016,08,24,09,14,18.10
2016,08,24,09,15,18.20
2016,08,24,09,16,18.20
2016,08,24,09,17,18.30
2016,08,24,09,18,18.30
2016,08,24,09,19,18.20
2016,08,24,09,20,18.20
2016,08,24,09,21,18.20
2016,08,24,09,22,18.20
2016,08,24,09,23,18.20
2016,08,24,09,24,18.20
2016,08,24,09,25,18.20
2016,08,24,09,26,18.20
2016,08,24,09,27,18.20
2016,08,24,09,28,18.20
2016,08,24,09,29,18.20
2016,08,24,09,30,18.20
2016,08,24,09,31,18.20
2016,08,24,09,32,18.20
2016,08,24,09,33,18.20
2016,08,24,09,34,18.20
2016,08,24,09,35,18.20
2016,08,24,09,36,18.20
2016,08,24,09,37,18.20
2016,08,24,09,38,18.30
2016,08,24,09,39,18.40
2016,08,24,09,40,18.40
2016,08,24,09,41,18.50
2016,08,24,09,42,18.50
2016,08,24,09,43,18.50
2016,08,24,09,44,18.50
2016,08,24,09,45,18.60
2016,08,24,09,46,18.60
2016,08,24,09,47,18.60
2016,08,24,09,48,18.50
2016,08,24,09,49,18.50
2016,08,24,09,50,18.60
2016,08,24,09,51,18.60
2016,08,24,09,52,18.60
2016,08,24,09,53,18.70
2016,08,24,09,54,18.70
2016,08,24,09,55,18.80
2016,08,24,09,56,18.80
2016,08,24,09,57,18.80
2016,08,24,09,58,18.80
2016,08,24,09,59,18.90
2016,08,24,10,00,19.00
2016,08,24,10,01,19.00
2016,08,24,10,02,19.10
2016,08,24,10,03,19.10
2016,08,24,10,04,19.10
2016,08,24,10,05,19.10
2016,08,24,10,06,19.10
2016,08,24,10,07,19.10
2016,08,24,10,08,19.10
2016,08,24,10,09,19.00
2016,08,24,10,10,19.00
2016,08,24,10,11,19.00
2016,08,24,10,12,19.00
2016,08,24,10,13,19.00
2016,08,24,10,14,19.10
2016,08,24,10,15,19.10
2016,08,24,10,16,19.10
2016,08,24,10,17,19.10
2016,08,24,10,18,19.20
2016,08,24,10,19,19.10
2016,08,24,10,20,19.10
2016,08,24,10,21,19.10
2016,08,24,10,22,19.10
2016,08,24,10,23,19.00
2016,08,24,10,24,19.00
2016,08,24,10,25,19.00
2016,08,24,10,26,19.00
2016,08,24,10,27,19.00
2016,08,24,10,28,19.10
2016,08,24,10,29,19.10
2016,08,24,10,30,19.20
2016,08,24,10,31,19.20
2016,08,24,10,32,19.20
2016,08,24,10,33,19.20
2016,08,24,10,34,19.20
2016,08,24,10,35,19.20
2016,08,24,10,36,19.20
2016,08,24,10,37,19.10
2016,08,24,10,38,19.10
2016,08,24,10,39,19.00
2016,08,24,10,40,19.00
2016,08,24,10,41,18.90
2016,08,24,10,42,18.90
2016,08,24,10,43,18.90
2016,08,24,10,44,18.90
2016,08,24,10,45,18.90
2016,08,24,10,46,19.00
2016,08,24,10,47,19.00
2016,08,24,10,48,19.10
2016,08,24,10,49,19.20
2016,08,24,10,50,19.20
2016,08,24,10,51,19.20
2016,08,24,10,52,19.30
2016,08,24,10,53,19.30
2016,08,24,10,54,19.40
2016,08,24,10,55,19.40
2016,08,24,10,56,19.40
2016,08,24,10,57,19.40
2016,08,24,10,58,19.30
2016,08,24,10,59,19.30
2016,08,24,11,00,19.30
2016,08,24,11,01,19.30
2016,08,24,11,02,19.40
2016,08,24,11,03,19.50
2016,08,24,11,04,19.60
2016,08,24,11,05,19.70
2016,08,24,11,06,19.80
2016,08,24,11,07,19.80
2016,08,24,11,08,19.80
2016,08,24,11,09,19.80
2016,08,24,11,10,19.80
2016,08,24,11,11,19.70
2016,08,24,11,12,19.80
2016,08,24,11,13,19.80
2016,08,24,11,14,19.80
2016,08,24,11,15,19.80
2016,08,24,11,16,19.80
2016,08,24,11,17,19.80
2016,08,24,11,18,19.80
2016,08,24,11,19,19.80
2016,08,24,11,20,19.80
2016,08,24,11,21,19.80
2016,08,24,11,22,19.60
2016,08,24,11,23,19.50
2016,08,24,11,24,19.50
2016,08,24,11,25,19.50
2016,08,24,11,26,19.50
2016,08,24,11,27,19.60
2016,08,24,11,28,19.70
2016,08,24,11,29,19.80
2016,08,24,11,30,20.00
2016,08,24,11,31,20.00
2016,08,24,11,32,20.10
2016,08,24,11,33,20.10
2016,08,24,11,34,20.10
2016,08,24,11,35,20.10
2016,08,24,11,36,20.10
2016,08,24,11,37,20.00
2016,08,24,11,38,20.00
2016,08,24,11,39,19.90
2016,08,24,11,40,19.90
2016,08,24,11,41,19.90
2016,08,24,11,42,19.90
2016,08,24,11,43,19.90
2016,08,24,11,44,19.90
2016,08,24,11,45,20.00
2016,08,24,11,46,20.00
2016,08,24,11,47,20.00
2016,08,24,11,48,20.00
2016,08,24,11,49,20.10
2016,08,24,11,50,20.00
2016,08,24,11,51,19.90
2016,08,24,11,52,19.90
2016,08,24,11,53,19.90
2016,08,24,11,54,19.80
2016,08,24,11,55,19.80
2016,08,24,11,56,19.80
2016,08,24,11,57,19.80
2016,08,24,11,58,19.80
2016,08,24,11,59,19.90
2016,08,24,12,00,19.90
2016,08,24,12,01,19.90
2016,08,24,12,02,20.00
2016,08,24,12,03,20.10
2016,08,24,12,04,20.10
2016,08,24,12,05,20.10
2016,08,24,12,06,20.10
2016,08,24,12,07,20.20
2016,08,24,12,08,20.20
2016,08,24,12,09,20.20
2016,08,24,12,10,20.20
2016,08,24,12,11,20.20
2016,08,24,12,12,20.30
2016,08,24,12,13,20.30
2016,08,24,12,14,20.20
2016,08,24,12,15,20.20
2016,08,24,12,16,20.20
2016,08,24,12,17,20.20
2016,08,24,12,18,20.10
2016,08,24,12,19,20.10
2016,08,24,12,20,20.10
2016,08,24,12,21,20.10
2016,08,24,12,22,20.00
2016,08,24,12,23,19.90
2016,08,24,12,24,19.80
2016,08,24,12,25,19.80
2016,08,24,12,26,19.80
2016,08,24,12,27,19.80
2016,08,24,12,28,19.80
2016,08,24,12,29,19.70
2016,08,24,12,30,19.70
2016,08,24,12,31,19.60
2016,08,24,12,32,19.70
2016,08,24,12,33,19.80
2016,08,24,12,34,20.00
2016,08,24,12,35,20.10
2016,08,24,12,36,20.20
2016,08,24,12,37,20.30
2016,08,24,12,38,20.40
2016,08,24,12,39,20.60
2016,08,24,12,40,20.70
2016,08,24,12,41,20.80
2016,08,24,12,42,20.90
2016,08,24,12,43,20.80
2016,08,24,12,44,20.80
2016,08,24,12,45,20.70
2016,08,24,12,46,20.70
2016,08,24,12,47,20.60
2016,08,24,12,48,20.40
2016,08,24,12,49,20.30
2016,08,24,12,50,20.10
2016,08,24,12,51,20.00
2016,08,24,12,52,19.90
2016,08,24,12,53,19.90
2016,08,24,12,54,19.90
2016,08,24,12,55,19.90
2016,08,24,12,56,19.90
2016,08,24,12,57,19.80
2016,08,24,12,58,19.80
2016,08,24,12,59,19.70
2016,08,24,13,00,19.70
2016,08,24,13,01,19.70
2016,08,24,13,02,19.70
2016,08,24,13,03,19.60
2016,08,24,13,04,19.60
2016,08,24,13,05,19.60
2016,08,24,13,06,19.60
2016,08,24,13,07,19.60
2016,08,24,13,08,19.70
2016,08,24,13,09,19.70
2016,08,24,13,10,19.80
2016,08,24,13,11,19.90
2016,08,24,13,12,19.90
2016,08,24,13,13,19.90
2016,08,24,13,14,19.90
2016,08,24,13,15,19.90
2016,08,24,13,16,19.90
2016,08,24,13,17,19.90
2016,08,24,13,18,19.90
2016,08,24,13,19,19.90
2016,08,24,13,20,19.90
2016,08,24,13,21,19.80
2016,08,24,13,22,19.80
2016,08,24,13,23,19.70
2016,08,24,13,24,19.70
2016,08,24,13,25,19.70
2016,08,24,13,26,19.70
2016,08,24,13,27,19.60
2016,08,24,13,28,19.60
2016,08,24,13,29,19.60
2016,08,24,13,30,19.60
2016,08,24,13,31,19.60
2016,08,24,13,32,19.60
2016,08,24,13,33,19.60
2016,08,24,13,34,19.60
2016,08,24,13,35,19.60
2016,08,24,13,36,19.60
2016,08,24,13,37,19.60
2016,08,24,13,38,19.70
2016,08,24,13,39,19.70
2016,08,24,13,40,19.70
2016,08,24,13,41,19.60
2016,08,24,13,42,19.60
2016,08,24,13,43,19.60
2016,08,24,13,44,19.60
2016,08,24,13,45,19.70
2016,08,24,13,46,19.70
2016,08,24,13,47,19.70
2016,08,24,13,48,19.70
2016,08,24,13,49,19.70
2016,08,24,13,50,19.70
2016,08,24,13,51,19.60
2016,08,24,13,52,19.70
2016,08,24,13,53,19.70
2016,08,24,13,54,19.70
2016,08,24,13,55,19.80
2016,08,24,13,56,19.90
2016,08,24,13,57,20.00
2016,08,24,13,58,20.10
2016,08,24,13,59,20.20
2016,08,24,14,00,20.30
2016,08,24,14,01,20.40
2016,08,24,14,02,20.50
2016,08,24,14,03,20.60
2016,08,24,14,04,20.70
2016,08,24,14,05,20.70
2016,08,24,14,06,20.70
2016,08,24,14,07,20.80
2016,08,24,14,08,20.80
2016,08,24,14,09,20.90
2016,08,24,14,10,21.00
2016,08,24,14,11,21.00
2016,08,24,14,12,21.10
2016,08,24,14,13,21.20
2016,08,24,14,14,21.30
2016,08,24,14,15,21.40
2016,08,24,14,16,21.50
2016,08,24,14,17,21.60
2016,08,24,14,18,21.60
2016,08,24,14,19,21.60
2016,08,24,14,20,21.50
2016,08,24,14,21,21.40
2016,08,24,14,22,21.30
2016,08,24,14,23,21.20
2016,08,24,14,24,21.10
2016,08,24,14,25,21.10
2016,08,24,14,26,21.00
2016,08,24,14,27,21.00
2016,08,24,14,28,21.10
2016,08,24,14,29,21.10
2016,08,24,14,30,21.20
2016,08,24,14,31,21.20
2016,08,24,14,32,21.30
2016,08,24,14,33,21.30
2016,08,24,14,34,21.40
2016,08,24,14,35,21.60
2016,08,24,14,36,21.70
2016,08,24,14,37,21.90
2016,08,24,14,38,22.00
2016,08,24,14,39,22.10
2016,08,24,14,40,22.20
2016,08,24,14,41,22.40
2016,08,24,14,42,22.50
2016,08,24,14,43,22.70
2016,08,24,14,44,22.80
2016,08,24,14,45,22.90
2016,08,24,14,46,23.00
2016,08,24,14,47,23.00
2016,08,24,14,48,23.10
2016,08,24,14,49,23.20
2016,08,24,14,50,23.30
2016,08,24,14,51,23.30
2016,08,24,14,52,23.30
2016,08,24,14,53,23.30
2016,08,24,14,54,23.30
2016,08,24,14,55,23.40
2016,08,24,14,56,23.50
2016,08,24,14,57,23.60
2016,08,24,14,58,23.60
2016,08,24,14,59,23.40
2016,08,24,15,00,23.20
2016,08,24,15,01,23.00
2016,08,24,15,02,22.80
2016,08,24,15,03,22.60
2016,08,24,15,04,22.40
2016,08,24,15,05,22.40
2016,08,24,15,06,22.30
2016,08,24,15,07,22.30
2016,08,24,15,08,22.30
2016,08,24,15,09,22.40
2016,08,24,15,10,22.50
2016,08,24,15,11,22.50
2016,08,24,15,12,22.60
2016,08,24,15,13,22.60
2016,08,24,15,14,22.50
2016,08,24,15,15,22.40
2016,08,24,15,16,22.40
2016,08,24,15,17,22.30
2016,08,24,15,18,22.30
2016,08,24,15,19,22.30
2016,08,24,15,20,22.20
2016,08,24,15,21,22.10
2016,08,24,15,22,22.10
2016,08,24,15,23,22.10
2016,08,24,15,24,22.00
2016,08,24,15,25,22.00
2016,08,24,15,26,22.10
2016,08,24,15,27,22.20
2016,08,24,15,28,22.30
2016,08,24,15,29,22.50
2016,08,24,15,30,22.60
2016,08,24,15,31,22.70
2016,08,24,15,32,22.80
2016,08,24,15,33,22.80
2016,08,24,15,34,22.80
2016,08,24,15,35,22.80
2016,08,24,15,36,22.80
2016,08,24,15,37,22.70
2016,08,24,15,38,22.60
2016,08,24,15,39,22.50
2016,08,24,15,40,22.50
2016,08,24,15,41,22.40
2016,08,24,15,42,22.30
2016,08,24,15,43,22.20
2016,08,24,15,44,22.20
2016,08,24,15,45,22.20
2016,08,24,15,46,22.20
2016,08,24,15,47,22.30
2016,08,24,15,48,22.40
2016,08,24,15,49,22.50
2016,08,24,15,50,22.50
2016,08,24,15,51,22.60
2016,08,24,15,52,22.70
2016,08,24,15,53,22.80
2016,08,24,15,54,22.90
2016,08,24,15,55,23.00
2016,08,24,15,56,23.00
2016,08,24,15,57,23.00
2016,08,24,15,58,23.00
2016,08,24,15,59,22.90
2016,08,24,16,00,22.80
2016,08,24,16,01,22.80
2016,08,24,16,02,22.70
2016,08,24,16,03,22.70
2016,08,24,16,04,22.60
2016,08,24,16,05,22.60
2016,08,24,16,06,22.50
2016,08,24,16,07,22.40
2016,08,24,16,08,22.20
2016,08,24,16,09,22.10
2016,08,24,16,10,22.00
2016,08,24,16,11,21.90
2016,08,24,16,12,21.90
2016,08,24,16,13,21.90
2016,08,24,16,14,21.90
2016,08,24,16,15,21.90
2016,08,24,16,16,21.90
2016,08,24,16,17,22.00
2016,08,24,16,18,22.10
2016,08,24,16,19,22.10
2016,08,24,16,20,22.20
2016,08,24,16,21,22.30
2016,08,24,16,22,22.50
2016,08,24,16,23,22.60
2016,08,24,16,24,22.80
2016,08,24,16,25,22.90
2016,08,24,16,26,23.10
2016,08,24,16,27,23.20
2016,08,24,16,28,23.40
2016,08,24,16,29,23.50
2016,08,24,16,30,23.60
2016,08,24,16,31,23.70
2016,08,24,16,32,23.80
2016,08,24,16,33,23.90
2016,08,24,16,34,23.90
2016,08,24,16,35,24.00
2016,08,24,16,36,24.00
2016,08,24,16,37,24.10
2016,08,24,16,38,24.10
2016,08,24,16,39,24.10
2016,08,24,16,40,24.20
2016,08,24,16,41,24.20
2016,08,24,16,42,24.20
2016,08,24,16,43,24.30
2016,08,24,16,44,24.30
2016,08,24,16,45,24.40
2016,08,24,16,46,24.40
2016,08,24,16,47,24.40
2016,08,24,16,48,24.40
2016,08,24,16,49,24.40
2016,08,24,16,50,24.50
2016,08,24,16,51,24.60
2016,08,24,16,52,24.60
2016,08,24,16,53,24.60
2016,08,24,16,54,24.70
2016,08,24,16,55,24.70
2016,08,24,16,56,24.80
2016,08,24,16,57,24.80
2016,08,24,16,58,24.80
2016,08,24,16,59,24.80
2016,08,24,17,00,24.80
2016,08,24,17,01,24.90
2016,08,24,17,02,24.90
2016,08,24,17,03,24.90
2016,08,24,17,04,25.00
2016,08,24,17,05,25.00
2016,08,24,17,06,25.00
2016,08,24,17,07,24.90
2016,08,24,17,08,24.80
2016,08,24,17,09,24.70
2016,08,24,17,10,24.60
2016,08,24,17,11,24.50
2016,08,24,17,12,24.50
2016,08,24,17,13,24.40
2016,08,24,17,14,24.30
2016,08,24,17,15,24.30
2016,08,24,17,16,24.30
2016,08,24,17,17,24.40
2016,08,24,17,18,24.50
2016,08,24,17,19,24.60